RH
14 13 13 13 13 13 14 15 16 16 16 17 17 17 17 17 17 17 17 17 17 17 17 17 16 16 16 16 15 15 14 13 12 11 11 11 10 10 10 9 9 9 10 11 11 10 10 13 22 32 36 32 24 16 13 13 13 11 8 7 7 8 8 9 8 9 9 9 9 9 8 8 8 8 8 7 9 19 40 66 83 83 77 70 67 66 64 58
13 13 13 14 14 15 16 16 17 17 17 18 18 18 18 18 18 17 17 17 17 17 17 16 16 16 15 14 14 14 13 13 12 12 12 11 11 11 11 10 10 10 9 10 11 12 12 10 10 14 23 32 36 32 24 15 10 9 10 9 8 7 7 7 7 7 7 7 7 7 8 8 8 7 8 9 21 50 75 84 83 79 75 70 66 61 56 49
15 15 15 16 16 17 17 18 18 18 18 18 18 18 18 18 18 17 17 17 16 16 16 16 16 15 15 14 13 13 13 13 12 13 12 12 12 11 12 12 10 10 10 10 10 11 12 12 12 10 10 14 20 28 35 33 22 11 7 7 7 8 8 9 8 8 9 8 8 9 8 6 8 10 12 15 30 57 75 79 81 82 78 73 67 60 52 42
17 17 18 18 18 18 18 18 18 19 19 18 18 18 18 17 17 17 17 16 16 16 15 15 15 14 14 13 13 12 12 13 13 13 13 13 13 13 13 13 12 11 10 9 9 10 11 12 12 13 12 11 11 13 19 27 30 27 19 12 8 8 7 6 6 6 6 6 6 6 9 19 38 49 46 44 50 65 77 82 86 87 83 78 69 60 49 37
20 20 20 19 19 19 19 19 19 19 19 18 18 18 17 17 17 16 16 16 15 15 15 14 14 13 13 13 13 13 13 13 14 14 14 14 14 14 14 14 14 13 12 11 10 10 10 11 12 13 13 13 12 11 11 12 17 24 28 26 24 26 22 18 24 26 17 14 15 16 28 49 75 87 79 76 79 83 86 87 87 85 82 78 69 59 46 32
22 21 21 21 20 20 20 20 20 19 19 19 18 18 18 17 17 16 15 15 15 14 14 13 13 13 13 14 14 15 15 15 15 16 16 16 16 16 16 15 16 15 14 13 12 11 10 10 11 12 13 14 13 12 12 12 11 12 15 19 22 27 28 27 35 38 29 25 24 24 30 38 47 52 47 47 51 55 61 67 74 78 79 75 67 57 41 25
23 22 22 22 21 21 21 21 20 20 19 18 18 17 17 17 16 15 15 14 14 14 13 13 13 14 14 15 16 16 17 17 17 18 18 18 18 18 18 18 17 17 17 16 14 12 11 11 11 10 12 13 14 14 13 13 13 13 11 12 12 13 15 15 15 16 15 14 12 10 10 9 9 11 10 9 15 27 40 52 67 75 76 73 67 54 33 18
24 24 23 23 22 21 21 20 19 19 18 17 17 17 16 16 15 14 14 14 14 14 14 14 14 14 15 16 17 18 18 19 20 20 20 20 20 20 20 20 20 20 19 18 17 15 13 12 11 11 11 12 13 13 15 15 14 14 13 13 13 12 12 11 10 10 9 8 6 5 5 5 5 5 5 5 10 20 34 52 68 71 67 67 63 45 24 14
23 23 22 21 20 20 19 19 18 17 17 16 16 17 17 16 15 14 14 14 14 14 14 14 15 15 16 17 18 19 19 19 20 21 22 22 22 22 22 22 21 22 22 20 19 17 16 15 13 12 11 12 13 12 13 15 16 15 15 14 14 14 13 12 11 11 10 9 8 7 7 7 7 7 6 6 7 15 37 61 70 68 64 60 49 32 20 19
21 20 20 19 18 18 18 17 17 17 17 17 18 19 19 17 16 16 16 16 15 16 17 16 17 17 18 18 19 19 19 18 18 18 20 21 22 21 22 23 22 23 23 22 21 19 18 19 17 14 13 13 13 13 13 14 15 16 16 17 17 16 15 14 12 11 10 10 8 8 9 8 7 6 6 7 7 19 53 79 77 73 68 53 38 29 26 25
23 22 22 22 21 21 20 20 20 20 20 21 25 27 25 23 21 21 21 21 20 21 22 20 20 21 20 20 20 19 19 19 17 17 18 20 20 20 20 20 21 23 23 23 21 20 22 23 21 17 15 15 14 14 13 13 14 15 16 17 18 18 17 15 14 13 12 10 9 9 9 9 7 6 6 9 14 22 51 77 80 78 66 47 37 34 31 29
38 36 34 33 33 32 31 30 29 28 28 30 36 37 34 31 30 29 29 27 26 27 26 25 24 24 23 22 21 20 19 19 18 18 18 18 19 18 18 18 18 20 22 22 20 21 24 26 24 20 17 17 17 16 14 13 13 13 14 16 17 18 18 18 16 15 14 12 11 9 10 10 7 7 7 11 21 27 43 65 73 70 56 42 39 38 33 34
52 50 48 46 44 43 43 42 40 38 38 41 44 44 40 37 36 35 34 32 31 30 28 27 26 25 24 23 21 20 20 19 19 18 18 17 17 17 17 16 17 18 18 19 19 21 26 29 25 20 21 22 19 18 16 15 15 14 14 15 16 16 17 18 17 16 16 13 11 10 11 11 8 9 8 12 25 34 45 54 56 54 46 40 40 39 36 37
56 55 54 53 51 50 49 48 46 43 42 44 45 43 41 38 37 36 34 32 30 29 28 26 25 24 23 22 21 20 19 18 18 17 16 16 16 16 16 15 15 16 16 17 17 19 25 30 27 24 26 23 19 22 20 16 16 16 15 15 16 16 16 17 17 18 19 15 12 11 11 12 10 10 9 12 25 36 41 43 44 44 42 40 40 40 39 40
57 56 55 54 52 51 50 48 46 43 42 42 41 40 38 36 35 33 32 30 29 28 27 25 24 23 22 21 20 19 18 17 17 16 15 15 14 14 14 14 15 14 15 16 16 18 22 29 29 27 26 21 23 28 24 20 18 17 18 17 17 16 16 16 16 18 20 17 14 11 11 13 12 11 11 11 22 33 36 38 40 40 40 40 40 42 42 43
55 54 52 50 49 47 46 45 43 41 39 38 37 36 34 33 32 30 29 28 27 26 25 24 23 21 20 19 18 17 16 16 15 14 14 13 13 13 13 13 13 13 14 15 17 17 21 27 27 24 23 26 30 29 26 24 20 18 20 21 19 19 18 17 16 16 20 19 15 12 11 13 14 14 13 11 18 32 39 41 40 40 41 41 40 42 44 45
50 48 47 45 44 42 40 39 37 36 35 33 32 31 30 29 28 27 26 25 24 23 22 21 20 19 18 17 16 16 15 14 14 14 13 13 12 12 12 12 12 12 13 13 16 17 19 23 23 21 22 29 33 33 32 26 20 19 22 24 23 22 21 19 17 15 19 20 17 13 11 13 15 16 17 14 16 27 40 48 47 43 43 44 42 41 44 46
41 40 39 38 36 35 34 32 31 30 29 29 28 27 26 26 25 24 23 23 22 21 20 19 18 18 17 16 16 15 14 14 13 13 12 12 12 11 11 11 11 11 11 12 13 15 17 20 21 22 24 33 39 41 35 21 17 21 24 27 28 27 25 22 20 16 18 22 19 16 13 13 16 19 19 17 17 24 34 46 52 48 44 44 43 40 42 46
35 34 32 31 30 29 28 27 27 26 25 25 25 25 24 24 23 23 22 21 20 19 19 18 18 17 16 16 15 15 14 14 13 13 13 12 11 11 11 10 11 10 10 11 11 12 15 18 22 23 25 28 31 34 28 17 19 25 27 34 35 32 29 26 23 18 18 22 22 18 14 13 16 20 23 19 18 24 31 37 44 46 44 42 41 39 39 45
31 30 28 27 26 25 25 25 25 24 24 24 25 24 23 23 23 22 21 20 19 19 18 18 17 17 16 16 15 15 14 14 15 13 12 13 13 11 11 11 10 10 10 10 10 11 13 16 19 20 19 19 22 30 30 24 28 33 36 41 41 37 33 30 27 22 18 20 23 21 16 15 15 19 26 24 18 20 27 32 34 36 37 37 37 36 38 46
28 27 26 26 25 24 24 25 25 25 25 25 25 25 23 23 22 21 20 19 19 19 19 19 18 17 16 15 16 15 15 15 14 13 13 14 14 13 12 11 11 10 11 10 10 11 11 12 13 15 17 18 22 32 37 32 35 44 47 46 46 42 34 32 31 25 20 20 23 22 18 17 15 16 24 27 21 16 19 26 31 32 31 31 33 35 42 46
30 29 29 28 27 26 25 27 27 27 26 25 25 24 23 22 21 20 19 19 19 19 20 20 19 19 16 15 16 16 18 17 13 13 16 15 15 15 14 14 14 12 12 12 11 11 10 10 11 13 14 17 21 28 35 33 33 45 52 50 51 45 34 34 33 26 22 22 23 22 19 18 17 16 21 25 23 15 13 19 24 28 28 28 33 38 42 38
32 31 31 30 29 28 27 27 26 25 25 24 23 22 21 20 19 18 18 20 21 20 21 21 20 21 17 14 15 17 21 19 15 16 18 17 15 16 18 18 15 14 15 14 13 12 11 10 11 12 12 15 18 22 28 29 31 42 52 54 54 46 38 36 31 25 25 25 24 23 21 20 18 17 19 23 24 15 10 15 19 22 25 27 33 35 33 26
26 25 25 24 24 23 23 23 22 22 21 20 20 19 19 18 17 17 17 20 24 23 21 22 22 22 19 15 14 20 25 21 16 17 19 18 17 18 19 19 17 18 18 15 15 14 13 11 11 12 11 12 13 16 20 25 29 37 48 56 55 47 42 37 30 29 30 28 27 26 23 22 20 19 18 20 25 18 10 13 17 19 21 23 25 24 21 15
20 20 19 19 19 19 19 18 18 18 18 18 17 17 17 16 17 17 17 20 27 29 23 21 25 24 20 16 15 19 24 25 19 17 19 19 19 20 19 19 21 23 19 17 19 18 15 14 14 13 12 12 12 13 15 19 23 30 44 54 49 42 43 40 36 37 37 33 30 28 26 24 21 21 20 18 23 21 10 11 14 14 14 14 13 12 11 8
18 18 17 17 17 18 17 17 17 17 17 17 17 17 17 17 17 17 18 19 28 36 28 20 24 27 23 18 16 18 24 32 25 16 19 21 20 21 20 21 23 23 22 22 23 21 17 17 18 17 14 13 12 12 12 13 16 22 33 39 34 33 41 44 43 45 46 39 33 33 32 28 23 21 22 19 20 20 12 9 10 9 8 8 8 8 7 6
17 17 16 17 17 18 17 17 17 17 17 17 17 17 17 19 18 18 19 19 27 38 35 25 22 26 30 26 20 17 24 37 31 18 22 24 20 20 21 23 25 26 25 26 27 23 19 21 22 20 17 17 15 13 12 11 13 15 19 22 24 29 39 43 43 51 53 42 38 40 37 33 27 22 23 21 18 19 14 9 9 8 7 7 7 7 7 7
16 16 16 16 17 18 18 18 17 17 17 17 17 18 19 21 22 21 22 22 26 36 39 33 25 23 30 34 30 21 22 34 34 26 26 25 22 21 23 29 30 26 22 26 33 26 23 27 25 21 21 22 19 14 13 13 12 11 12 15 18 23 32 36 40 52 57 47 45 47 40 37 32 24 24 22 17 18 18 13 11 9 8 7 7 7 7 8
16 16 16 17 17 18 20 20 19 18 17 17 17 18 19 22 24 26 26 25 28 36 39 38 32 27 26 31 35 31 25 28 31 30 29 30 29 24 25 31 29 23 20 27 35 31 30 33 27 26 29 25 19 17 18 17 12 10 11 12 13 16 23 28 34 47 56 52 50 50 43 39 36 28 25 22 16 17 20 18 15 14 11 7 8 8 7 8
18 18 18 18 19 20 21 21 21 20 18 18 17 18 19 21 24 27 28 30 34 36 38 38 36 33 29 27 31 34 32 28 27 27 29 32 33 28 28 30 26 24 22 25 35 37 36 35 31 32 31 23 19 21 23 22 15 12 13 12 11 12 15 20 24 36 50 54 51 50 49 43 39 36 28 21 17 17 20 20 19 20 19 12 8 9 8 8
19 20 21 22 23 23 23 23 23 22 20 19 18 18 18 19 23 24 26 36 42 38 36 37 36 35 34 30 27 31 35 34 29 26 26 30 33 32 32 33 32 31 27 29 41 43 35 34 35 33 28 22 22 24 27 25 19 16 16 13 11 10 11 13 16 24 40 53 52 51 53 47 42 41 34 24 19 18 18 19 21 24 26 21 12 9 10 8
19 20 21 22 24 25 25 24 24 23 22 21 20 18 18 18 20 21 26 37 43 40 37 37 37 37 37 34 30 28 31 35 34 29 25 26 29 32 33 34 35 33 30 34 41 37 28 30 31 27 25 25 27 31 32 27 20 16 16 14 12 11 10 11 12 15 28 45 49 50 53 50 45 44 41 32 24 20 18 17 20 23 26 28 20 12 12 10
20 20 19 20 22 24 26 26 25 25 24 23 22 20 19 18 18 22 30 36 38 39 40 37 36 36 38 38 34 28 26 30 34 33 28 24 25 28 31 32 31 30 32 34 34 29 25 26 28 28 30 31 33 36 34 25 17 14 16 16 15 15 14 12 11 11 17 28 36 44 53 51 47 47 44 40 32 23 19 17 18 20 23 29 26 17 14 14
21 20 20 19 19 20 22 24 25 25 25 24 23 22 20 18 17 22 31 36 34 36 40 40 36 34 37 40 37 31 27 26 28 31 30 26 24 25 28 32 31 31 35 37 35 33 28 26 29 34 34 31 30 30 26 20 16 16 18 18 18 18 17 14 11 10 11 15 20 34 50 49 45 49 47 44 41 32 24 20 18 20 21 25 29 22 16 17
21 21 21 20 19 18 19 21 24 25 25 25 24 23 22 21 20 20 26 34 36 34 37 40 39 35 34 36 38 37 33 28 25 27 29 29 27 25 27 32 34 32 33 33 33 32 28 27 31 32 28 26 25 25 22 18 18 19 16 18 23 21 16 14 13 11 10 11 11 21 41 47 45 49 49 46 45 40 33 26 21 21 21 22 27 25 18 17
22 21 21 21 20 19 18 19 21 23 25 25 25 24 23 23 23 21 22 29 36 35 35 37 40 39 35 33 34 37 37 33 28 26 27 28 29 27 25 28 32 31 30 29 29 27 26 29 29 25 24 24 23 23 20 17 19 17 15 23 27 19 14 16 17 15 13 12 11 13 28 43 45 47 49 49 47 44 39 33 27 22 22 22 24 25 21 17
22 21 20 20 21 20 19 18 19 21 23 24 25 25 25 24 23 23 22 23 29 35 35 35 37 39 39 35 32 33 35 35 32 29 27 26 27 28 26 25 27 29 29 28 27 26 27 31 29 24 27 28 23 21 19 17 17 16 19 28 26 16 17 20 18 17 16 14 12 9 15 31 41 43 47 49 49 47 43 39 33 25 22 23 23 24 21 17
23 22 20 19 20 20 19 18 18 18 20 22 24 25 26 25 23 23 23 22 23 29 35 36 34 35 38 38 36 34 33 34 33 31 30 27 26 26 27 26 25 26 28 28 28 30 31 33 32 28 30 31 25 20 18 17 18 18 23 26 21 18 21 21 18 17 18 15 13 10 10 18 29 38 45 49 49 49 47 43 38 31 24 23 22 22 22 19
22 21 20 19 19 19 18 17 17 17 17 19 22 24 25 26 25 23 22 22 22 23 29 35 35 33 34 37 39 38 36 34 33 31 30 28 26 25 27 27 25 24 27 28 30 33 34 34 35 32 28 28 25 20 18 19 20 21 22 22 21 23 23 21 18 16 17 18 16 15 14 12 16 25 37 47 50 50 50 47 43 37 30 25 21 20 22 22
17 18 18 18 18 19 18 17 16 16 16 17 19 21 23 24 26 24 22 21 22 22 23 28 34 35 34 34 36 39 39 38 35 32 31 29 27 26 26 27 27 25 26 27 29 33 34 34 36 35 27 24 23 21 22 24 24 23 23 23 23 24 22 19 19 18 18 20 19 19 18 14 12 15 22 36 47 50 51 50 47 43 37 31 25 20 20 21
13 12 13 13 15 17 18 18 16 15 14 15 15 18 21 22 24 25 24 21 21 23 22 23 27 33 35 35 33 34 37 38 38 35 32 30 27 26 26 27 28 26 25 26 27 31 32 29 32 34 28 24 22 22 24 25 23 23 22 22 21 20 18 17 21 22 21 21 21 20 19 17 16 16 14 19 32 44 50 51 49 49 46 40 33 27 23 21
11 10 9 9 10 12 14 16 16 15 14 14 13 15 17 20 22 24 24 23 21 22 23 23 23 26 31 35 34 33 33 34 36 36 35 32 29 27 26 27 29 29 27 26 24 27 29 27 29 33 29 24 22 21 22 22 22 21 20 20 18 16 15 16 22 26 25 25 24 24 26 22 17 20 19 14 18 28 41 49 48 48 50 48 43 37 31 26
10 10 9 8 8 9 10 11 13 14 14 14 13 13 14 16 19 21 23 23 22 21 22 23 23 22 25 30 34 34 33 32 33 34 34 34 31 28 26 25 28 30 29 28 25 23 24 25 27 32 31 27 24 22 21 21 22 19 18 19 17 16 16 16 20 23 22 26 27 28 36 30 19 20 22 19 17 17 25 38 45 46 48 49 49 45 41 35
10 10 10 10 10 9 9 9 9 10 11 12 13 13 12 13 15 18 20 21 22 21 20 21 22 22 22 24 28 33 34 33 31 31 32 33 32 30 27 24 25 29 30 30 27 24 22 22 23 28 31 28 25 23 21 21 22 20 20 22 20 19 19 17 18 18 17 23 25 29 41 40 25 21 23 21 21 19 17 22 33 42 46 47 49 49 48 44
7 8 8 9 10 11 12 11 10 9 8 9 11 12 12 12 12 14 17 19 20 20 20 19 19 21 21 21 23 26 30 32 32 31 30 30 30 30 28 25 24 25 28 29 29 26 24 22 21 25 29 28 25 24 23 23 24 23 23 25 25 25 24 22 23 19 17 20 19 23 40 44 28 20 21 20 21 21 19 17 20 30 39 44 48 49 50 50
5 5 5 6 7 8 10 12 13 13 10 9 9 9 11 11 10 11 12 15 17 19 20 20 18 19 20 21 22 22 24 27 29 30 29 29 29 29 28 27 24 23 24 26 28 28 26 24 22 22 26 28 25 24 24 24 25 24 24 25 26 26 26 25 23 20 19 20 17 19 32 39 34 25 20 19 19 20 20 20 17 18 25 33 40 45 47 49
3 3 3 4 4 5 7 9 11 13 14 13 11 9 8 9 10 10 10 11 13 16 18 19 19 18 18 20 22 22 22 23 24 25 26 27 29 29 28 27 27 25 23 23 25 27 27 26 24 22 23 25 25 24 23 23 22 23 24 24 25 25 24 21 19 19 20 19 18 20 23 28 34 30 20 16 19 19 19 21 20 18 17 21 27 33 38 42
2 3 3 3 3 3 4 5 7 9 12 14 14 13 11 9 8 9 10 9 10 12 14 16 18 18 17 17 19 21 22 22 22 21 21 22 25 28 29 28 27 27 24 22 22 24 26 27 25 24 23 24 25 24 22 21 21 22 23 23 25 25 24 20 18 19 20 17 18 22 20 19 24 26 21 17 18 19 20 21 22 21 20 19 19 21 26 32
2 2 2 2 3 3 3 3 4 6 8 10 13 14 15 14 11 9 9 9 9 9 10 12 14 16 17 17 17 18 20 21 21 20 19 19 20 24 27 29 28 27 27 24 22 21 23 25 26 25 24 25 26 25 23 21 19 19 20 21 23 23 22 20 19 20 19 17 18 21 17 15 17 20 21 18 15 17 19 21 23 24 24 23 21 20 20 23
1 1 2 2 2 2 3 3 3 4 5 7 8 11 14 16 16 13 10 8 8 8 8 8 11 13 16 17 16 16 17 19 20 20 20 19 18 18 22 25 27 28 27 25 24 22 21 23 24 25 25 25 26 27 25 22 19 17 18 19 20 21 21 20 20 20 18 16 18 19 17 15 16 18 20 19 16 14 16 19 23 25 24 24 23 22 22 20
1 1 2 1 2 2 2 3 3 3 3 4 6 7 9 13 16 18 15 11 8 7 8 8 8 9 12 15 16 16 15 16 18 19 19 19 19 17 17 19 22 25 26 25 24 23 22 21 22 23 24 25 25 26 26 24 21 18 17 18 19 20 21 21 20 19 19 18 18 18 15 16 19 19 19 19 16 13 14 16 19 22 24 23 22 22 23 23
1 1 1 1 1 1 1 2 2 2 3 3 4 5 6 8 11 15 18 17 13 9 7 7 7 8 8 11 13 15 15 14 15 17 18 18 18 18 17 16 17 19 22 24 23 23 23 22 21 20 21 24 25 24 24 25 23 20 18 19 21 21 21 22 21 18 18 19 18 16 16 20 24 20 15 16 15 13 13 13 14 17 19 22 24 24 24 25
Wind_Speed
30 29 28 27 26 25 24 23 22 21 20 20 20 20 20 20 21 20 20 21 21 21 21 21 21 20 19 18 17 17 17 17 16 14 11 9 8 8 6 5 5 5 5 4 2 2 1 1 1 1 3 6 10 13 17 20 23 26 28 30 31 33 33 33 33 34 34 34 34 34 34 34 34 33 33 32 31 30 29 29 30 30 30 29 28 26 26 26
30 29 28 27 27 26 25 25 24 23 22 22 22 22 22 22 23 23 22 22 22 22 23 23 23 23 22 20 18 17 18 18 17 16 14 12 11 10 8 6 5 6 6 6 5 3 3 2 1 0 0 1 4 7 11 15 18 20 22 25 27 28 30 32 32 32 32 32 31 31 32 32 32 33 32 31 30 29 29 30 30 31 30 29 27 26 25 25
30 30 29 28 28 27 27 26 26 25 25 25 25 25 25 25 25 25 25 24 24 24 24 24 24 25 24 22 20 18 19 20 19 18 17 15 13 12 10 8 7 7 7 7 7 6 5 4 3 2 1 0 0 2 5 9 12 15 17 19 21 23 27 29 29 29 29 29 29 29 30 30 30 31 31 31 31 31 31 31 31 30 30 28 27 25 24 23
31 31 30 30 29 29 29 28 28 28 28 28 28 28 28 28 28 27 27 27 26 26 26 26 26 25 25 24 23 20 19 20 20 20 20 18 16 14 12 11 10 9 8 9 9 8 7 6 5 4 3 2 1 1 1 3 6 9 12 15 17 19 22 24 24 25 27 28 28 27 27 27 27 29 30 31 32 32 32 32 31 30 29 27 25 23 22 22
32 32 32 32 32 31 31 31 31 31 31 31 31 31 31 31 31 30 30 29 28 28 28 27 27 26 26 25 25 23 21 21 20 21 22 20 18 17 15 13 13 13 11 10 10 10 10 9 7 6 5 4 3 2 1 1 2 4 6 9 12 14 17 18 19 21 24 25 26 26 26 26 26 29 31 32 32 33 33 32 31 29 28 25 23 22 21 21
34 34 34 34 34 34 34 34 34 34 34 34 34 34 34 34 34 33 32 31 31 30 30 29 28 27 27 26 26 25 24 23 22 22 23 24 21 20 19 17 16 16 15 12 11 11 12 11 10 9 8 7 6 5 3 3 2 3 3 4 6 9 12 13 14 18 20 21 22 22 23 25 26 28 30 31 32 32 32 30 29 26 24 23 21 20 20 19
37 37 37 37 37 37 37 37 37 37 37 37 37 37 37 37 37 36 35 34 33 32 32 31 30 29 29 28 28 28 27 26 25 24 24 26 25 23 22 21 19 18 19 17 14 13 13 14 13 12 10 10 9 8 6 5 4 4 4 4 5 7 9 10 10 13 15 16 16 16 18 20 22 24 25 26 27 28 27 26 23 22 20 19 19 19 18 17
40 40 40 40 40 40 40 40 40 40 39 39 39 39 40 40 39 38 37 36 35 34 34 33 32 32 31 31 31 30 30 29 29 28 27 27 28 26 25 25 23 21 21 21 18 15 14 15 16 15 13 12 12 11 9 8 7 6 6 6 6 7 9 11 11 12 13 13 13 14 15 18 20 22 22 23 24 24 23 21 19 17 16 16 17 17 16 14
43 43 43 43 43 42 42 42 42 41 40 40 40 41 41 41 41 39 39 38 37 36 36 36 35 35 34 34 33 33 32 32 31 30 29 29 30 30 28 28 27 24 24 25 23 19 16 16 18 17 16 14 14 14 12 11 10 10 8 8 7 8 10 12 13 14 14 14 13 13 14 16 18 19 20 20 21 21 20 18 16 14 13 13 14 14 12 10
45 44 44 44 44 44 44 43 43 42 41 41 41 42 43 43 42 41 41 41 40 39 39 38 38 37 37 36 35 35 34 34 33 32 31 31 31 31 31 31 29 28 28 28 27 24 19 18 20 19 18 17 16 16 15 14 13 12 11 10 9 10 11 12 14 14 15 15 14 13 12 15 16 17 17 17 17 18 18 17 14 13 12 11 11 11 10 7
46 46 46 46 45 45 45 45 44 44 43 43 43 45 46 45 44 43 43 43 41 41 40 40 39 38 38 37 37 37 36 36 35 34 33 33 33 33 33 33 31 31 31 31 31 27 22 22 23 22 20 19 20 19 18 16 15 15 13 12 11 12 12 13 13 14 15 16 15 13 10 13 15 15 15 14 14 15 16 16 14 13 12 11 10 9 8 6
48 48 48 48 48 47 47 47 47 46 45 44 46 47 48 47 46 45 45 44 43 42 42 40 40 40 39 39 39 38 37 37 37 37 36 35 36 35 35 35 34 33 33 33 33 30 27 26 28 25 21 21 22 22 21 19 17 17 15 15 14 14 14 14 14 13 15 17 16 13 11 12 14 14 14 11 9 8 9 10 11 11 11 10 9 8 7 6
50 50 50 49 49 49 49 49 48 47 46 46 47 49 48 47 46 46 46 45 44 44 43 41 41 42 41 42 41 40 39 40 40 40 40 38 38 39 39 38 37 36 36 35 34 32 30 31 32 29 24 24 24 24 24 22 20 19 17 16 16 16 15 15 15 13 15 17 16 13 11 13 14 14 14 10 6 2 3 4 6 8 9 9 8 7 8 8
51 51 51 51 51 50 50 50 50 48 47 47 48 50 49 48 47 47 48 47 47 46 45 43 43 44 44 44 43 42 42 42 43 44 43 42 41 41 42 41 41 40 39 37 36 34 34 35 36 33 29 28 26 25 27 25 23 21 19 17 16 17 17 16 15 13 14 17 16 12 10 13 14 14 15 11 5 1 1 2 4 6 8 7 7 8 9 9
53 53 52 52 52 52 52 52 51 50 48 48 49 51 50 49 49 49 49 49 49 48 47 46 46 46 46 46 45 45 45 45 46 45 44 44 44 44 44 44 44 43 42 40 39 37 36 38 38 37 34 31 27 28 29 28 26 24 21 19 17 18 18 18 16 14 14 17 16 12 9 12 14 14 14 12 6 2 0 1 3 5 6 7 8 9 9 10
55 54 54 54 54 53 53 53 53 51 49 50 51 52 52 51 51 51 51 51 51 50 49 48 47 48 48 48 47 46 46 46 47 46 44 44 45 45 45 45 45 45 44 43 42 41 40 41 41 39 37 34 32 31 31 31 28 26 24 21 19 19 19 19 18 15 14 17 16 12 9 10 13 14 14 12 8 3 1 2 3 4 5 6 8 8 9 10
56 56 56 56 56 55 54 55 55 54 52 52 53 53 53 53 52 52 52 53 53 51 50 49 49 48 48 48 47 47 47 46 46 46 45 44 44 45 45 46 46 46 46 45 45 44 43 44 43 41 39 37 36 35 35 34 30 27 26 24 22 21 20 19 18 16 14 16 16 13 9 9 12 14 13 12 9 5 2 3 4 5 5 6 7 8 9 9
58 58 58 58 58 57 57 57 57 56 54 54 55 55 55 54 53 53 53 54 54 52 51 50 49 48 48 48 47 46 46 46 45 46 45 44 43 44 44 45 46 47 47 47 47 46 46 46 45 43 41 40 39 39 40 36 31 29 28 27 25 23 22 20 19 18 15 16 17 14 10 8 10 13 13 11 9 7 5 5 6 6 6 7 7 8 9 9
61 61 61 60 60 59 59 59 59 58 56 56 56 56 56 55 54 54 54 54 53 52 51 50 49 48 47 46 46 45 44 44 44 44 44 44 43 42 43 44 45 46 47 47 47 47 48 48 48 46 45 45 43 43 41 35 32 31 29 29 29 27 25 22 20 19 15 15 17 15 12 7 8 10 11 10 8 7 7 6 7 7 7 7 7 8 9 9
64 64 64 63 63 62 61 61 61 60 59 58 57 58 56 55 54 53 54 53 52 51 50 49 49 48 46 44 44 44 44 42 43 43 41 42 42 42 42 42 43 45 45 46 46 47 49 50 50 49 48 46 44 43 41 36 33 33 32 32 32 31 29 25 23 20 17 15 16 17 14 9 6 7 9 9 8 7 7 6 6 7 8 8 8 9 9 9
67 67 67 66 65 64 62 62 63 61 61 59 58 58 57 56 54 53 54 53 52 51 50 49 48 48 46 42 42 43 42 43 44 41 40 40 41 41 41 41 42 42 42 43 44 47 50 50 50 49 48 47 46 45 43 40 37 36 37 36 35 35 33 28 26 22 18 15 16 17 15 11 8 6 7 8 8 6 6 7 7 7 8 8 8 9 10 9
69 69 69 69 68 67 64 63 63 62 62 61 59 58 57 57 55 53 53 53 53 50 49 49 47 48 47 40 40 42 42 46 44 39 39 39 40 41 39 38 40 39 40 41 43 46 47 46 47 48 48 48 48 48 47 44 40 39 40 39 39 39 35 31 29 25 20 16 16 18 16 13 10 7 7 8 7 7 6 7 7 7 7 7 8 9 10 9
70 69 70 70 69 68 66 64 64 63 62 62 61 59 58 57 56 55 53 53 54 51 50 50 48 49 48 40 38 39 43 47 43 38 40 40 40 39 35 36 38 37 38 40 42 43 43 43 45 47 48 49 50 50 49 47 43 42 42 43 43 41 36 34 31 26 22 18 16 18 18 16 13 8 8 8 7 7 6 6 6 6 6 7 8 9 10 10
70 70 71 71 71 70 68 66 65 64 64 63 63 61 60 58 57 56 53 52 54 53 52 50 49 50 49 42 36 37 45 47 42 40 42 41 39 36 35 36 34 33 36 38 38 40 40 40 42 44 46 48 50 50 51 49 47 45 44 46 47 42 37 35 31 28 26 21 18 18 19 18 16 11 9 10 7 7 7 5 6 6 6 8 10 11 11 11
71 71 72 72 72 72 72 69 66 66 65 65 64 63 62 60 58 57 55 53 52 55 55 50 49 51 50 43 37 40 45 46 44 41 40 41 38 36 36 34 31 33 35 34 33 36 36 36 38 41 42 44 47 49 51 51 50 48 48 51 48 41 37 35 32 30 29 25 20 18 19 20 19 14 11 11 9 7 7 6 5 5 6 8 11 11 12 13
74 73 73 74 73 74 74 71 69 67 67 67 65 64 63 62 61 58 57 54 51 56 58 50 48 51 50 45 41 41 42 45 47 39 37 41 39 37 37 35 35 35 32 27 28 33 33 32 34 37 39 40 43 47 50 51 51 51 53 52 46 40 38 37 34 32 30 29 23 18 20 22 21 18 14 14 13 9 6 5 5 5 6 8 10 11 13 16
76 75 75 75 74 75 75 74 71 69 68 68 67 65 64 63 62 59 58 55 51 56 59 53 49 49 49 47 44 42 41 46 46 36 37 43 41 38 37 37 38 35 29 26 28 31 29 27 30 33 34 36 39 43 44 46 50 53 52 49 45 42 40 39 36 33 32 31 25 20 23 25 24 22 18 17 16 11 8 7 6 6 6 8 10 12 15 17
79 78 77 77 76 75 76 75 74 71 70 70 68 67 65 64 63 61 60 57 53 56 58 56 51 48 48 48 47 45 44 47 45 38 40 44 40 38 37 38 39 37 32 27 30 31 26 25 28 28 29 32 36 37 37 41 48 49 48 48 48 45 43 41 37 35 35 32 27 25 27 29 27 24 22 22 19 14 11 10 9 8 8 8 10 12 15 18
83 81 80 79 78 76 76 76 75 74 73 72 70 68 67 66 65 63 62 59 56 56 57 58 55 51 49 49 50 48 47 48 46 41 42 43 41 39 39 41 42 40 34 30 33 32 27 28 27 25 27 31 32 31 32 39 43 42 43 47 48 46 45 43 40 39 37 32 30 32 32 32 31 27 26 26 21 16 13 13 12 10 9 9 10 12 15 18
85 84 82 80 78 77 76 76 76 76 76 74 72 70 70 69 67 66 63 60 58 57 57 58 58 55 52 52 53 52 50 50 48 45 44 45 44 41 40 43 42 40 36 34 35 34 31 31 28 27 30 29 27 26 29 35 37 36 39 44 45 46 45 44 42 41 37 34 38 39 35 33 33 30 29 27 22 18 17 18 16 13 11 11 12 13 15 18
85 84 83 81 79 78 77 77 77 77 78 77 75 73 72 71 70 69 63 60 62 60 58 59 60 59 57 55 55 55 55 53 51 49 46 47 47 43 43 44 42 41 39 37 39 40 37 34 32 33 31 27 24 24 26 30 31 32 36 39 40 42 43 43 43 41 40 42 44 42 36 34 34 33 31 28 24 22 21 20 18 16 14 14 14 16 17 19
84 84 83 81 79 79 78 78 78 79 79 80 79 76 75 74 73 69 64 63 66 62 60 61 61 62 61 59 59 59 59 57 54 52 49 49 49 47 46 46 45 44 42 43 46 44 40 37 36 34 30 27 25 25 26 27 29 30 33 34 34 36 37 39 42 43 45 46 46 42 36 34 36 36 33 30 27 26 24 22 20 19 17 17 17 18 19 20
85 84 83 82 80 80 80 80 80 81 80 81 81 79 78 76 72 68 67 68 68 65 64 64 64 65 65 64 63 62 62 61 58 55 52 50 50 50 49 48 47 44 43 46 47 43 39 37 34 32 31 30 30 30 31 30 28 27 27 27 27 29 31 35 41 44 47 47 45 42 35 34 39 39 37 34 29 28 26 24 23 21 20 19 19 20 20 22
85 84 83 83 81 80 81 82 82 83 83 82 82 83 81 77 72 70 72 73 71 68 68 67 67 68 68 68 67 65 64 64 62 59 55 52 50 50 51 49 47 46 46 47 45 43 40 36 34 35 37 36 35 35 33 29 24 21 21 20 21 25 29 33 37 40 44 45 43 41 36 38 43 42 40 37 32 30 29 28 26 24 22 22 22 22 23 24
86 86 84 83 83 81 81 82 83 85 86 85 84 84 82 78 75 75 76 76 75 72 72 71 71 71 71 71 70 68 67 66 64 62 59 55 52 52 52 52 51 49 49 48 47 46 42 39 40 41 39 36 35 35 32 27 23 22 20 18 20 25 27 27 29 32 37 39 41 41 40 43 48 44 41 40 36 34 33 31 30 28 26 24 24 25 25 25
88 88 86 84 84 83 83 83 83 85 87 88 86 84 81 80 81 80 79 79 78 76 75 76 75 74 74 74 73 72 70 68 66 64 62 59 57 56 55 55 54 52 51 50 49 46 42 42 44 41 37 37 36 34 30 26 26 23 18 20 24 23 20 19 22 26 30 35 41 45 45 48 51 47 44 42 40 39 36 34 34 32 30 27 26 27 27 27
89 90 88 86 85 85 85 85 85 85 87 88 88 84 82 84 85 84 83 82 81 81 80 80 79 78 76 76 75 75 73 71 69 67 65 63 61 59 57 57 56 53 52 50 48 45 43 44 44 39 38 39 37 33 27 25 24 20 19 24 23 17 15 17 20 23 28 34 40 44 47 50 52 51 48 46 44 43 41 38 36 35 33 31 30 30 29 29
91 91 90 88 88 88 88 87 86 86 87 87 87 86 85 86 87 87 87 85 85 84 84 83 82 80 79 78 77 77 77 75 73 70 68 67 65 62 60 59 58 55 53 51 49 47 46 45 44 41 40 41 37 31 27 25 24 23 25 25 18 16 17 17 18 21 25 29 33 37 43 49 54 55 52 48 47 46 43 41 39 37 36 36 34 32 31 31
92 93 92 90 90 91 91 90 89 88 87 86 87 87 87 87 88 90 90 89 88 87 86 86 85 83 82 81 80 80 80 78 76 74 72 70 67 64 63 62 59 57 55 54 53 52 50 48 46 45 44 42 37 30 27 27 27 27 27 23 18 19 20 19 19 19 21 24 28 32 39 47 54 56 53 50 49 47 45 42 40 39 39 38 37 35 34 33
94 94 93 91 92 93 93 93 91 90 89 87 87 88 88 89 90 91 92 91 90 89 89 88 88 87 85 84 83 82 82 81 80 78 76 74 70 67 66 64 62 60 59 58 57 56 55 51 48 49 47 43 37 32 30 31 32 30 27 25 22 22 21 19 18 18 20 23 26 29 35 43 48 51 52 51 50 48 47 45 43 41 40 40 39 37 36 34
98 98 95 93 93 95 95 94 94 92 91 89 88 88 89 90 90 92 92 92 91 91 91 91 91 90 88 88 87 85 84 83 83 82 80 77 74 71 69 67 65 64 63 62 61 60 58 54 51 52 50 44 40 39 38 37 36 33 29 27 26 24 20 16 15 17 19 20 22 23 28 36 39 40 45 49 50 50 49 48 46 44 42 41 40 39 38 37
101 101 98 95 95 96 96 95 95 94 93 92 90 89 90 91 91 92 93 93 93 94 94 93 93 92 92 91 90 88 86 86 85 85 84 81 78 74 72 70 69 68 67 66 64 62 59 56 54 54 52 48 46 45 44 42 39 36 31 29 27 24 19 15 15 17 19 18 18 16 19 30 34 32 36 43 47 50 51 50 49 48 46 45 43 42 40 39
103 103 101 98 98 98 98 97 96 95 95 94 92 91 91 92 92 93 94 94 95 96 96 96 96 95 95 95 94 92 90 89 88 88 86 84 81 78 75 74 72 71 70 69 67 65 62 60 58 57 55 54 51 50 48 45 42 37 32 31 29 24 22 21 20 20 18 16 16 14 16 28 31 27 29 34 39 44 49 52 52 51 50 49 48 46 44 42
105 104 103 101 100 100 100 100 98 96 96 95 94 93 93 93 93 94 96 96 96 96 97 99 99 98 98 97 96 95 94 92 91 90 89 87 84 81 79 77 76 75 74 72 70 67 66 64 62 60 59 58 56 53 50 47 44 39 37 36 33 31 29 27 25 22 19 16 16 14 15 27 31 28 26 29 33 37 43 50 54 54 53 52 51 50 47 45
105 105 104 103 101 101 102 102 100 98 97 97 97 96 95 94 94 95 97 98 97 96 97 99 101 101 100 99 98 98 97 96 94 92 91 89 87 84 82 80 80 79 77 75 72 71 69 67 65 63 63 61 59 56 53 51 48 45 43 41 39 38 35 33 31 28 23 21 20 17 18 25 31 31 28 28 31 33 36 42 50 54 55 54 53 52 50 48
99 100 101 101 100 100 101 102 101 101 100 99 99 99 98 96 95 95 96 97 98 98 98 100 101 102 102 100 100 100 99 99 97 95 94 92 89 87 85 83 82 82 81 78 76 74 72 70 68 67 65 64 63 60 57 55 52 49 47 45 43 41 39 38 35 29 26 26 23 22 23 25 28 32 30 27 27 29 31 34 41 49 54 55 55 54 53 51
88 90 93 95 94 95 97 99 101 103 103 102 101 101 100 99 98 96 96 97 97 99 100 100 100 101 102 103 102 101 101 101 100 99 97 95 92 90 88 87 85 84 83 82 80 78 75 74 73 71 68 66 65 63 62 59 56 53 52 49 46 45 43 39 34 30 31 30 26 26 29 27 27 33 33 28 26 26 27 28 31 38 45 51 53 54 55 54
75 78 81 84 87 87 89 92 96 100 102 103 104 104 102 102 101 99 98 98 97 99 100 100 100 101 102 103 104 104 103 103 102 102 100 97 95 93 91 90 88 86 85 85 83 81 79 78 76 74 71 69 67 67 66 63 60 58 55 52 50 49 45 40 36 36 36 31 28 32 32 28 28 31 34 33 28 25 25 25 26 29 34 40 45 50 54 56
64 67 69 73 76 78 81 84 88 94 98 101 104 105 105 104 104 103 101 100 99 99 99 99 99 100 101 102 104 105 106 105 105 104 102 98 96 95 95 94 92 90 88 87 86 85 83 81 80 77 73 72 71 70 69 68 64 61 58 55 54 52 48 44 41 42 40 35 33 35 32 28 29 31 34 36 33 27 25 24 24 26 28 32 36 41 46 52
55 57 60 62 65 69 73 76 79 85 92 96 100 103 105 106 107 107 105 104 102 100 99 98 98 100 101 102 104 106 107 107 106 105 102 100 99 97 97 97 95 93 92 90 88 87 86 84 83 80 76 75 74 73 72 71 67 63 61 59 56 54 52 49 47 46 43 39 38 37 33 30 32 34 36 39 37 32 28 27 27 27 28 29 31 33 36 41
50 51 53 55 56 59 64 68 71 76 83 89 95 99 102 105 108 110 109 107 105 102 100 99 98 99 100 101 103 105 106 107 106 105 104 103 101 100 99 98 98 97 95 93 91 89 88 87 85 83 80 77 77 76 74 72 69 66 63 61 60 58 56 53 52 49 46 44 43 40 35 34 38 42 41 41 40 35 32 31 30 29 30 30 29 30 32 34
45 47 49 50 50 52 56 59 63 68 74 80 88 93 97 101 106 109 111 110 108 105 102 100 99 99 99 100 102 103 104 104 105 106 106 105 104 102 101 99 99 98 97 96 94 92 90 89 88 86 83 80 80 79 76 74 72 67 65 65 64 62 59 58 56 53 50 48 46 41 38 41 45 46 44 42 41 38 36 35 32 31 32 31 30 30 31 32
Wind_Direction
272 273 274 274 275 275 275 275 274 274 274 274 274 274 275 277 279 281 283 286 290 293 295 298 300 302 304 306 308 308 306 309 314 318 320 324 329 338 345 345 345 347 352 353 5 15 19 38 31 253 241 240 238 237 239 241 244 245 244 243 242 243 245 246 247 248 250 253 255 258 261 263 266 268 269 271 273 275 277 278 280 282 284 285 285 285 284 284
272 272 273 273 274 274 274 274 274 274 273 272 272 272 272 273 274 276 278 280 283 286 289 292 295 296 298 299 300 300 299 301 306 306 307 311 315 320 323 320 319 323 326 327 323 320 318 323 355 39 144 231 241 240 238 240 242 243 244 243 244 244 245 247 248 249 252 254 257 261 263 266 268 270 271 272 273 275 276 277 278 280 281 281 281 282 283 284
272 273 273 273 273 273 274 274 274 274 273 273 272 271 271 272 273 274 275 277 279 281 284 287 289 291 293 294 294 293 293 295 298 298 299 303 305 308 309 303 298 301 306 310 309 306 300 300 302 304 318 332 220 231 234 239 241 240 240 240 241 242 244 247 249 250 253 255 257 260 264 267 270 272 272 271 271 272 273 274 275 276 277 277 279 280 281 282
273 273 274 274 274 274 275 275 275 275 275 274 274 273 273 273 273 273 274 275 277 279 280 282 284 287 288 290 290 290 289 290 292 293 294 296 297 297 297 291 287 287 292 296 297 296 291 288 286 284 286 291 295 294 247 243 244 240 238 236 234 237 242 246 249 251 252 254 255 258 262 266 270 271 271 271 271 271 272 272 272 273 275 275 276 277 277 279
272 273 274 274 275 275 276 276 276 276 276 276 276 276 275 275 274 274 274 274 276 277 278 279 280 282 284 286 287 287 286 285 286 287 289 290 290 290 288 284 283 284 284 286 288 287 285 283 280 275 271 270 270 276 285 277 260 246 238 237 236 239 245 247 252 255 255 257 258 260 263 265 267 268 269 270 270 270 271 271 272 273 273 273 273 273 274 275
271 272 273 273 274 275 275 276 276 276 276 276 277 277 276 275 275 274 274 275 275 275 276 276 277 278 280 281 283 285 284 283 282 282 284 285 285 285 284 282 280 281 281 279 278 279 281 280 276 272 267 264 261 255 255 256 260 262 251 245 246 249 252 253 258 262 263 265 266 268 268 267 266 267 268 269 270 272 272 273 274 273 273 271 269 268 269 270
269 270 271 272 272 273 273 274 274 275 275 276 276 277 276 275 275 274 275 275 274 275 275 275 276 276 277 278 279 279 280 280 279 278 279 281 282 280 280 281 278 277 278 277 273 272 274 276 276 272 267 264 263 258 251 248 247 251 253 249 250 256 257 254 255 261 267 271 273 274 272 271 271 271 273 274 274 274 275 274 273 271 270 267 263 262 263 262
269 269 270 271 271 271 272 273 273 273 274 275 276 276 276 275 275 275 275 275 275 275 275 275 275 275 275 276 276 276 276 276 276 275 275 276 277 276 275 276 276 273 273 274 272 270 270 271 273 272 268 264 263 262 256 250 246 246 248 251 255 262 263 259 256 258 264 269 274 277 277 277 279 280 280 278 276 275 275 275 273 270 267 262 257 257 256 252
268 269 269 270 270 271 271 271 272 272 273 274 275 275 275 275 275 275 276 276 275 276 276 276 276 276 275 275 275 274 273 274 273 273 272 271 272 272 272 271 273 271 269 272 272 270 267 266 268 268 268 265 262 261 258 253 250 246 247 252 259 265 269 269 267 266 268 271 274 280 289 291 289 289 287 284 281 279 277 276 273 270 264 258 253 250 244 237
268 268 269 269 269 270 270 270 271 271 272 273 274 275 274 274 275 275 276 275 276 276 276 276 276 276 276 276 275 273 274 274 273 272 272 270 269 269 269 268 269 268 267 269 270 270 267 263 262 262 264 265 262 260 258 254 252 250 249 252 257 262 267 271 274 276 276 276 276 281 299 307 303 298 296 294 291 283 276 273 272 267 265 257 246 236 228 221
268 268 268 269 269 270 270 270 271 271 272 273 274 274 274 274 275 276 276 276 276 276 276 276 277 276 276 276 275 274 275 275 274 274 272 270 270 269 268 268 267 266 265 266 268 270 266 260 259 258 259 262 263 262 258 254 252 251 251 251 254 258 264 269 274 280 281 279 280 285 304 319 315 308 305 305 299 285 271 266 264 262 262 249 231 221 214 203
270 270 270 270 271 271 272 272 272 272 273 274 275 274 274 275 276 277 276 277 277 276 276 277 277 277 276 275 275 276 276 275 275 274 271 270 269 268 268 268 266 264 263 264 266 267 263 259 258 258 256 257 260 262 260 257 254 253 252 253 254 256 261 266 270 279 285 283 286 293 310 324 325 317 313 316 312 291 269 260 255 256 253 236 218 212 205 191
271 271 271 271 271 272 272 272 272 273 273 274 274 274 275 275 276 276 277 277 276 276 276 276 276 276 276 275 275 276 275 274 273 271 271 270 269 268 268 267 266 264 262 263 264 263 259 256 257 259 256 252 254 258 261 259 256 254 252 253 255 257 260 264 268 276 285 285 288 299 316 329 333 328 325 333 340 316 264 252 248 246 239 227 214 207 202 188
271 271 272 272 272 272 272 273 272 272 273 274 274 274 275 275 275 276 276 276 275 275 275 276 276 276 275 275 276 275 274 273 272 271 272 272 269 267 266 266 265 264 262 261 261 259 256 253 256 257 252 250 251 253 257 258 258 256 253 252 254 258 259 262 266 272 281 283 286 297 316 332 337 337 335 344 358 356 237 251 242 237 231 221 214 208 201 191
271 271 271 272 272 272 273 273 273 272 273 273 273 274 274 275 275 275 276 276 275 276 276 276 276 276 276 275 275 275 274 273 272 272 272 271 269 267 264 263 263 263 262 260 258 256 253 251 252 252 251 251 249 249 252 254 255 256 256 253 252 255 258 261 264 267 275 279 284 292 313 333 340 342 341 345 356 6 232 276 250 237 231 222 213 205 202 197
271 271 271 271 271 271 272 272 273 272 272 273 273 273 274 275 275 275 275 275 275 275 275 275 275 275 275 275 274 274 273 272 272 271 270 268 267 265 263 262 260 260 259 257 255 253 250 248 249 251 252 250 246 245 248 249 249 253 256 254 251 254 257 260 262 263 270 276 281 290 308 332 342 345 345 343 347 352 270 274 268 246 234 229 219 207 202 199
270 270 270 271 271 271 271 271 272 272 272 272 272 272 273 273 274 274 274 274 274 274 274 274 274 274 274 273 273 273 272 272 271 270 268 266 264 263 262 261 258 257 255 253 251 250 248 247 248 250 250 248 245 244 244 245 245 247 252 254 252 252 255 258 261 261 265 274 280 288 302 328 342 346 349 344 339 331 279 248 261 254 238 233 228 214 203 200
270 269 269 269 269 270 270 270 271 271 271 271 271 271 271 272 272 273 273 273 273 273 273 272 272 271 271 272 272 272 271 270 269 268 267 266 264 262 261 259 257 256 254 252 250 249 248 247 247 247 247 245 242 240 241 244 244 244 248 253 254 252 252 254 257 259 261 270 278 282 289 315 339 345 353 350 335 317 289 251 249 253 243 233 231 219 205 200
269 269 269 268 269 269 269 269 270 270 270 269 270 270 270 271 271 271 271 271 271 272 271 270 269 269 268 269 270 269 268 268 266 265 265 266 263 261 259 257 256 254 253 252 251 249 247 245 244 243 243 243 242 241 243 246 245 245 246 250 253 251 250 249 250 253 254 262 273 277 278 295 327 340 351 356 342 313 291 265 245 247 246 236 232 222 207 199
269 269 269 269 268 268 268 269 269 269 269 269 269 269 269 269 269 269 269 269 269 268 268 267 267 267 265 265 266 265 266 264 261 262 263 262 261 259 258 257 255 254 253 252 250 247 244 243 242 242 244 245 245 245 245 245 244 244 244 245 248 249 248 247 246 247 246 251 264 270 273 279 296 325 341 351 351 321 291 273 251 243 244 238 231 220 206 198
270 270 270 269 269 268 268 268 269 268 268 268 268 268 268 268 267 267 266 266 265 264 264 264 264 263 262 262 262 262 263 259 257 259 259 257 257 258 257 256 254 254 253 251 249 246 244 244 244 244 244 245 244 243 242 241 238 239 240 240 242 245 245 245 245 244 242 243 254 263 267 271 272 295 324 337 348 328 291 270 256 241 238 236 226 211 200 200
271 271 270 270 269 269 268 268 268 268 268 267 266 266 266 266 265 264 264 263 261 260 260 260 259 260 261 259 257 259 257 256 257 258 254 252 252 253 255 253 252 253 252 250 248 247 247 247 246 244 243 242 242 241 241 239 236 235 237 237 238 240 241 243 245 244 242 239 248 258 263 266 265 272 301 320 338 327 293 262 249 234 228 223 212 201 200 208
270 270 270 270 270 269 268 267 267 267 267 266 265 264 263 263 263 262 261 259 259 257 255 256 256 256 258 256 253 256 254 254 256 254 250 249 249 251 251 249 251 251 249 249 249 248 248 246 245 243 241 240 240 240 240 239 236 234 235 237 237 237 238 240 243 244 245 240 243 255 260 263 263 262 279 296 322 318 289 254 238 225 210 204 202 203 210 219
269 269 270 270 270 269 268 267 266 266 266 265 264 264 262 261 261 260 258 255 255 255 252 252 253 253 255 255 250 248 250 252 252 249 248 248 248 248 246 247 249 248 245 247 248 248 248 246 245 243 241 240 239 240 240 239 237 234 233 235 236 235 236 239 242 245 247 243 239 249 256 260 261 258 262 272 292 304 284 251 232 223 209 208 213 214 218 219
269 269 269 269 269 269 268 267 266 265 264 264 263 262 262 260 259 257 256 253 252 254 251 249 251 252 254 254 246 241 247 252 250 246 247 249 247 245 244 245 243 240 242 244 246 247 247 245 244 244 242 241 239 239 239 238 237 235 233 234 235 234 235 237 239 242 247 246 241 245 253 256 258 254 255 260 264 274 271 249 228 225 219 219 220 215 210 201
270 269 269 269 269 269 268 267 266 264 263 262 261 261 260 259 258 256 254 251 248 251 252 248 246 250 253 251 244 239 243 249 248 245 247 248 245 241 241 241 237 237 239 240 241 245 245 243 243 243 242 241 240 238 238 238 237 236 234 235 236 235 234 234 235 238 244 246 242 244 251 253 253 251 249 251 250 245 246 236 211 210 215 211 208 198 188 184
270 270 269 269 268 268 268 267 265 263 262 261 259 258 257 256 256 254 252 249 245 247 252 249 243 244 249 250 245 238 237 245 248 243 243 245 242 240 239 239 238 237 235 235 239 242 241 241 240 241 242 241 240 238 238 239 238 237 238 239 239 235 233 232 231 233 238 242 241 241 246 249 248 247 244 243 241 230 219 215 195 190 201 195 187 183 179 179
271 270 269 269 268 267 267 266 265 263 261 259 258 256 254 253 253 252 250 248 243 243 249 250 245 240 241 246 246 240 235 241 246 241 240 244 243 241 238 237 238 237 233 233 240 240 236 237 238 239 241 240 240 241 240 240 239 239 239 239 238 235 232 231 229 228 232 236 238 236 239 243 243 241 241 239 235 225 214 211 200 190 194 190 183 181 179 180
271 270 269 268 267 266 265 265 264 263 260 258 257 254 252 251 250 249 248 247 243 241 244 249 247 241 236 238 243 243 238 239 242 240 240 243 243 239 235 234 237 239 234 231 239 241 237 237 237 236 238 239 240 241 240 240 240 239 239 239 237 235 232 230 227 226 227 229 233 232 231 238 241 239 238 237 233 225 220 217 208 197 198 197 191 187 183 180
270 269 268 267 266 265 264 263 263 262 260 258 255 253 251 249 247 246 246 246 243 239 240 245 246 244 238 234 237 242 242 240 239 238 238 240 241 240 238 237 238 241 238 234 240 242 237 238 237 237 239 239 238 237 238 241 240 238 239 238 237 234 232 230 228 226 223 224 229 229 227 233 239 239 238 238 233 228 226 221 213 207 207 204 200 195 189 182
269 268 267 266 265 264 263 262 261 260 259 258 256 253 250 248 247 246 244 243 242 239 238 240 244 245 242 236 234 237 241 242 239 237 235 237 239 239 239 240 239 239 237 237 239 239 235 234 235 237 237 235 233 233 237 241 238 235 237 238 238 237 234 231 229 226 222 222 226 228 226 230 238 241 241 240 236 230 228 224 218 214 214 212 207 201 195 189
269 267 265 264 263 262 261 261 260 258 257 257 256 253 250 248 247 246 243 240 241 239 237 237 240 243 243 240 235 234 238 241 241 238 234 235 236 236 236 237 236 235 234 234 236 237 235 233 234 238 238 234 233 235 238 238 234 232 236 240 240 239 236 233 230 226 223 223 225 227 226 229 236 240 242 241 237 234 230 227 224 221 218 216 212 206 200 196
268 267 265 263 261 260 259 259 259 258 256 254 254 253 251 249 247 245 242 239 239 238 237 236 237 239 241 241 238 235 235 239 241 240 236 234 234 235 235 236 236 235 235 236 238 240 238 235 236 239 239 234 232 234 235 234 233 234 236 238 239 237 233 230 227 226 225 224 225 226 225 229 235 237 240 239 237 238 235 230 228 225 222 218 214 212 205 202
267 266 265 264 261 258 257 256 256 256 255 253 252 251 251 250 247 243 240 240 238 237 236 235 235 236 238 240 240 238 236 237 239 240 238 235 234 235 235 235 235 233 232 234 235 236 235 233 233 233 233 230 229 232 233 233 234 232 228 227 230 228 225 226 227 226 226 225 224 223 220 228 234 233 236 239 237 238 238 233 230 226 224 220 216 215 211 207
266 265 264 263 262 259 256 254 254 254 254 253 251 250 250 249 247 243 239 239 238 236 235 235 234 234 235 237 239 239 238 237 237 238 239 236 234 234 234 232 231 230 230 230 230 230 230 229 230 230 230 230 231 234 234 232 230 224 218 216 221 224 224 228 228 227 228 226 224 221 216 224 233 231 232 236 235 235 237 235 231 226 224 223 220 218 214 211
265 264 263 262 261 259 256 254 252 251 251 252 250 249 248 246 245 243 240 238 237 236 235 235 234 233 234 235 237 238 238 238 237 237 237 236 234 233 233 232 231 229 229 229 229 229 229 230 231 230 231 233 232 233 231 227 226 222 215 216 220 223 222 220 218 217 221 221 220 218 213 219 229 230 229 232 232 232 233 233 232 228 224 223 223 221 217 214
264 263 262 261 259 258 256 254 252 250 249 250 250 249 246 244 243 242 241 239 237 235 235 235 234 233 233 234 235 237 238 238 237 236 236 236 234 233 233 233 232 230 229 229 230 231 231 233 235 233 235 236 234 232 229 225 224 218 216 224 223 214 207 208 207 207 212 216 218 217 214 216 225 228 226 227 229 230 229 230 232 231 227 224 223 223 220 217
264 263 262 260 259 257 255 253 251 250 248 248 248 247 245 244 242 241 240 239 237 235 235 235 235 234 233 233 234 236 238 238 237 237 236 236 234 233 233 234 233 231 230 230 230 232 232 234 236 235 235 238 236 232 228 226 222 217 221 227 217 201 201 202 201 202 207 216 219 218 216 217 222 227 225 224 228 230 229 229 231 232 231 228 226 224 223 220
263 262 261 260 259 257 255 253 251 250 248 247 246 246 244 243 242 240 239 238 237 236 235 235 235 235 234 234 233 234 236 238 238 237 236 236 235 233 233 233 233 232 231 230 229 231 232 232 235 235 234 237 236 230 228 227 224 222 225 224 211 203 204 200 199 200 203 213 217 214 215 217 221 225 225 224 227 230 232 231 230 232 234 233 230 227 226 224
263 262 261 260 258 257 256 255 253 251 249 247 245 244 244 242 241 241 239 238 237 237 236 235 235 235 235 235 234 234 235 237 238 238 237 236 235 233 233 232 233 232 231 230 229 230 230 229 232 235 233 233 233 230 230 232 230 227 225 222 214 209 210 204 199 196 195 205 214 214 216 219 221 225 225 224 226 229 232 233 231 231 233 236 236 232 229 229
263 262 261 259 258 257 256 255 254 252 250 248 246 244 243 242 241 240 240 238 237 236 236 236 235 234 234 235 235 234 234 235 237 237 237 236 234 233 233 232 232 232 231 231 230 230 230 228 229 234 233 230 228 227 229 231 231 228 224 222 218 215 215 203 191 196 196 202 213 218 223 224 222 223 225 225 225 226 230 233 234 233 233 235 238 237 234 233
264 263 262 260 258 257 256 255 254 253 252 250 247 245 243 242 240 240 239 238 236 235 235 235 235 234 234 234 234 234 234 234 235 236 237 236 234 233 232 232 232 232 231 231 230 230 230 228 229 233 234 230 226 225 226 228 230 226 221 222 220 216 213 198 196 207 199 196 208 216 235 234 222 219 223 224 224 225 226 230 234 235 235 235 236 238 238 237
265 263 262 261 259 258 256 255 254 253 252 251 249 247 244 242 240 239 239 237 235 234 233 233 234 234 233 234 234 234 234 234 234 235 236 236 235 233 232 232 232 232 232 232 231 230 230 228 228 231 233 231 228 226 225 226 228 225 221 224 223 218 216 212 214 213 193 191 207 211 242 246 230 219 220 220 223 224 224 226 229 233 235 236 236 236 237 238
267 264 262 260 258 257 256 254 253 252 252 251 250 248 246 243 241 240 239 238 236 234 233 233 233 233 233 233 233 233 233 233 233 234 235 236 235 233 232 231 231 232 232 232 232 231 230 229 228 229 231 232 230 228 226 227 228 226 225 228 228 227 226 223 224 218 198 201 215 208 233 251 242 229 220 217 219 222 222 223 225 229 233 235 237 236 235 236
268 266 264 260 257 255 254 253 252 251 251 250 250 248 247 245 242 240 239 238 237 235 233 232 232 232 233 233 233 233 233 233 233 233 234 235 235 234 233 231 230 231 232 232 232 231 231 230 228 229 230 232 232 230 227 227 228 227 228 229 229 230 230 228 227 221 210 213 216 205 219 244 249 241 227 219 219 220 221 223 224 226 230 233 237 238 238 237
268 266 264 262 259 255 253 251 250 249 248 248 248 248 247 245 243 242 240 239 238 236 235 233 232 231 232 232 232 233 233 233 233 233 233 234 234 234 234 232 230 230 231 231 231 231 231 230 229 229 229 231 232 231 229 228 228 227 228 229 230 231 231 230 227 219 216 220 216 210 218 234 250 252 242 229 223 221 222 224 224 225 228 231 235 238 240 240
268 265 263 262 259 256 253 251 249 247 246 245 245 246 246 246 244 242 241 239 238 237 236 234 232 231 231 231 232 232 233 233 233 233 232 232 233 233 234 233 232 231 230 230 230 231 231 231 230 229 229 230 231 232 232 231 229 228 229 229 231 233 234 233 229 224 225 224 217 219 223 225 239 253 253 243 231 224 223 223 225 226 226 229 232 234 237 239
268 265 263 261 259 256 253 250 248 247 245 243 243 243 243 244 244 243 241 240 238 237 236 235 233 232 231 230 231 231 232 233 233 233 232 232 231 232 233 233 233 232 231 230 230 230 230 230 230 229 229 230 231 233 234 233 231 230 230 230 232 235 236 235 233 231 230 225 220 224 225 223 232 248 256 253 243 233 228 225 225 227 227 227 229 231 234 236
268 265 263 260 258 256 253 250 247 245 244 243 241 240 240 240 242 242 241 240 239 237 236 236 234 233 232 230 230 230 231 231 233 233 233 232 232 231 231 232 232 232 232 231 230 230 229 230 230 230 229 230 231 232 233 233 232 231 231 231 233 235 236 236 234 233 231 224 224 228 226 224 231 240 250 256 254 248 242 236 231 230 230 229 229 229 231 233
270 267 263 260 257 255 253 250 246 244 243 241 241 239 238 237 238 239 240 240 239 237 236 235 234 234 233 231 230 230 230 231 232 233 234 233 232 231 231 231 231 232 232 231 231 230 230 230 230 230 229 230 230 231 233 234 233 232 232 232 233 234 236 235 234 233 230 225 225 228 226 226 231 235 241 249 253 252 249 246 242 239 237 234 232 232 233 234
273 269 265 261 258 254 252 249 246 243 241 240 239 238 237 236 235 236 238 239 239 238 236 235 234 233 233 232 231 230 230 230 231 232 233 234 233 233 232 231 231 231 231 231 231 230 230 230 230 230 229 229 231 231 232 233 233 232 233 233 234 234 234 235 234 233 230 228 227 227 227 229 234 235 236 241 247 249 250 249 248 247 245 240 236 236 237 239
274 270 266 263 259 255 252 249 246 243 240 239 238 237 236 235 234 234 235 236 238 238 237 235 234 233 232 232 231 230 230 230 231 231 232 233 233 233 233 232 232 231 231 231 231 230 230 231 231 231 229 229 231 231 231 232 233 232 233 235 234 234 233 234 234 232 231 230 229 227 228 232 235 236 237 240 244 247 250 251 250 251 253 249 244 241 241 242